San Jose, Costa Rica

8:54 PM CST on March 25, 2017 (GMT -0600)
Juan Santamaria International Airport

Weather History for MROC - February, 2015

Change the Weather History Date:

Thursday, February 19, 2015

  Actual Average Record
Temperature  
Mean Temperature 76 °F -  
Max Temperature 85 °F 82 °F 89 °F (1998)
Min Temperature 67 °F 64 °F 61 °F (2017)
Cooling Degree Days 11    
Growing Degree Days 26 (Base 50)    
Moisture  
Dew Point 51 °F    
Average Humidity 43    
Maximum Humidity 64    
Minimum Humidity 14    
Precipitation  
Precipitation 0.00 in 0.02 in - ()
Sea Level Pressure  
Sea Level Pressure 30.00 in    
Wind  
Wind Speed 12 mph ()    
Max Wind Speed 28 mph    
Max Gust Speed 37 mph    
Visibility 9.8 miles    
Events      
Averages and records for this station are not official NWS values.
T = Trace of Precipitation, MM = Missing Value Source: Averaged Metar Reports

Daily Weather History Graph

Daily Weather History Graph

Search for Another Location

Airport or City:

Trip Planner

Search our weather history database for the weather conditions in past years. The results will help you decide how hot, cold, wet, or windy it might be!

Date:

Astronomy

Feb. 19, 2015 Rise Set
Actual Time 5:55 AM CST 5:46 PM CST
Civil Twilight 5:33 AM CST 6:07 PM CST
Nautical Twilight 5:09 AM CST 6:32 PM CST
Astronomical Twilight 4:44 AM CST 6:56 PM CST
Moon 6:19 AM CST (2/19) 6:39 PM CST (2/19)
Length of Visible Light 12h 33m
Length of Day
11h 50m
New Moon, 1% of the Moon is Illuminated
Feb 19
New Moon
Feb 25
First Quarter
Mar 5
Full
Mar 13
Last Quarter
Mar 20
New

Hourly Weather History & Observations

Time (CST) Temp. Dew Point Humidity Pressure Visibility Wind Dir Wind Speed Gust Speed Precip Events Conditions
12:00 AM 69 °F 57 °F 57% 29.94 in 12 mi NE 5.8 mph - -   Scattered Clouds
12:00 AM 69.8 °F 57.2 °F 64% 30.10 in 6.2 mi NE 5.8 mph - N/A   Partly Cloudy
1:00 AM 68.0 °F 55.4 °F 64% 30.08 in 6.2 mi ESE 6.9 mph - N/A   Partly Cloudy
2:00 AM 69.8 °F 50.0 °F 49% 30.06 in - East 8.1 mph - N/A   Clear
3:00 AM 70 °F 51 °F 41% 29.88 in 12 mi East 12.7 mph - -  
3:00 AM 69.8 °F 51.8 °F 53% 30.05 in - East 12.7 mph 24.2 mph N/A   Clear
4:00 AM 68.0 °F 51.8 °F 56% 30.03 in - East 13.8 mph 25.3 mph N/A   Clear
5:00 AM 68.0 °F 51.8 °F 56% 30.02 in - East 15.0 mph 26.5 mph N/A   Clear
6:00 AM 68 °F 52 °F 45% 29.90 in 12 mi East 15.0 mph - -  
6:00 AM 68.0 °F 51.8 °F 56% 30.03 in - East 15.0 mph 26.5 mph N/A   Clear
7:00 AM 69.8 °F 51.8 °F 53% 30.05 in - East 16.1 mph 27.6 mph N/A   Clear
8:00 AM 73.4 °F 50.0 °F 44% 30.07 in - East 18.4 mph 32.2 mph N/A   Clear
9:00 AM 76 °F 50 °F 29% 29.93 in 12 mi East 21.9 mph - -  
9:00 AM 77.0 °F 50.0 °F 39% 30.08 in - East 21.9 mph 36.8 mph N/A   Clear
10:00 AM 80.6 °F 48.2 °F 32% 30.08 in - East 18.4 mph 29.9 mph N/A   Clear
11:00 AM 82.4 °F 42.8 °F 25% 30.06 in - East 17.3 mph 28.8 mph N/A   Clear
12:00 PM 84 °F 43 °F 14% 29.87 in 12 mi East 17.3 mph - -  
12:00 PM 84.2 °F 42.8 °F 23% 30.03 in - East 17.3 mph 32.2 mph N/A   Clear
1:00 PM 84.2 °F 39.2 °F 20% 30.01 in - East 17.3 mph 28.8 mph N/A   Clear
2:00 PM 82.4 °F 46.4 °F 28% 29.98 in - East 18.4 mph 29.9 mph N/A   Clear
3:00 PM 82 °F 49 °F 22% 29.82 in 12 mi ENE 27.6 mph - -   Scattered Clouds
3:00 PM 82.4 °F 50.0 °F 32% 29.97 in 6.2 mi ENE 16.1 mph 27.6 mph N/A   Partly Cloudy
4:00 PM 80.6 °F 50.0 °F 34% 29.97 in 6.2 mi ENE 17.3 mph 28.8 mph N/A   Partly Cloudy
5:00 PM 78.8 °F 51.8 °F 39% 29.99 in 6.2 mi ENE 15.0 mph 27.6 mph N/A   Partly Cloudy
6:00 PM 74 °F 54 °F 39% 29.88 in 12 mi ENE 16.1 mph - -  
6:00 PM 73.4 °F 53.6 °F 50% 30.00 in - ENE 16.1 mph - N/A   Clear
7:00 PM 73.4 °F 55.4 °F 53% 30.03 in - ENE 11.5 mph 23.0 mph N/A   Clear
8:00 PM 70 °F 54 °F 46% 29.92 in 12 mi East 8.1 mph - -  
8:00 PM 69.8 °F 53.6 °F 56% 30.06 in - East 8.1 mph - N/A   Clear
9:00 PM 69.8 °F 53.6 °F 56% 30.06 in - East 8.1 mph - N/A   Clear
10:00 PM 69.8 °F 53.6 °F 56% 30.06 in - East 8.1 mph - N/A   Clear
11:00 PM 69.8 °F 53.6 °F 56% 30.06 in - East 9.2 mph - N/A   Clear